• In Portugal
  • List of Countries
  • For 7 days
  • Water Temperature
  • Satellite Maps
  • Weather Map
  • Weather Widgets
  • user-avatar
    Login

    Hourly Weather Keetmanshoop

    Today, 19 October, Thursday

    Time Temperature Precipitation Wind Pressure Humidity
    00:00 +19°C° 0 mm 6 mps 677 mmHg 31%
    01:00 +16°C° 0 mm 5 mps 677 mmHg 33%
    02:00 +15°C° 0 mm 5 mps 677 mmHg 33%
    03:00 +15°C° 0 mm 4 mps 677 mmHg 34%
    04:00 +14°C° 0 mm 4 mps 677 mmHg 35%
    05:00 +14°C° 0 mm 4 mps 678 mmHg 31%
    06:00 +15°C° 0 mm 4 mps 678 mmHg 28%
    07:00 +15°C° 0 mm 4 mps 679 mmHg 24%
    08:00 +18°C° 0 mm 4 mps 679 mmHg 22%
    09:00 +19°C° 0 mm 4 mps 679 mmHg 19%
    10:00 +21°C° 0 mm 3 mps 679 mmHg 16%
    11:00 +22°C° 0 mm 3 mps 679 mmHg 16%
    12:00 +25°C° 0 mm 4 mps 678 mmHg 15%
    13:00 +26°C° 0 mm 4 mps 678 mmHg 14%
    14:00 +26°C° 0 mm 4 mps 678 mmHg 15%
    15:00 +27°C° 0 mm 4 mps 677 mmHg 15%
    16:00 +27°C° 0 mm 4 mps 677 mmHg 15%
    17:00 +26°C° 0 mm 4 mps 677 mmHg 17%
    18:00 +25°C° 0 mm 4 mps 677 mmHg 19%
    19:00 +23°C° 0 mm 4 mps 677 mmHg 20%
    20:00 +22°C° 0 mm 5 mps 678 mmHg 24%
    21:00 +21°C° 0 mm 5 mps 678 mmHg 27%
    22:00 +20°C° 0 mm 5 mps 678 mmHg 30%
    23:00 +19°C° 0 mm 5 mps 678 mmHg 34%

    Tomorrow, 20 October, Friday

    Time Temperature Precipitation Wind Pressure Humidity
    00:00 +18°C° 0 mm 4 mps 678 mmHg 38%
    01:00 +17°C° 0 mm 3 mps 678 mmHg 42%
    02:00 +16°C° 0 mm 3 mps 677 mmHg 45%
    03:00 +16°C° 0 mm 3 mps 677 mmHg 49%
    04:00 +14°C° 0 mm 3 mps 677 mmHg 53%
    05:00 +14°C° 0 mm 3 mps 678 mmHg 51%
    06:00 +16°C° 0 mm 3 mps 678 mmHg 49%
    07:00 +16°C° 0 mm 3 mps 679 mmHg 46%
    08:00 +18°C° 0 mm 2 mps 679 mmHg 40%
    09:00 +20°C° 0 mm 2 mps 679 mmHg 34%
    10:00 +23°C° 0 mm 2 mps 680 mmHg 27%
    11:00 +25°C° 0 mm 2 mps 680 mmHg 24%
    12:00 +26°C° 0 mm 2 mps 679 mmHg 20%
    13:00 +28°C° 0 mm 3 mps 679 mmHg 16%
    14:00 +28°C° 0 mm 4 mps 679 mmHg 16%
    15:00 +28°C° 0 mm 4 mps 679 mmHg 15%
    16:00 +29°C° 0 mm 5 mps 678 mmHg 14%
    17:00 +27°C° 0 mm 6 mps 679 mmHg 15%
    18:00 +26°C° 0 mm 6 mps 679 mmHg 16%
    19:00 +24°C° 0 mm 7 mps 679 mmHg 17%
    20:00 +23°C° 0 mm 7 mps 680 mmHg 17%
    21:00 +22°C° 0 mm 7 mps 680 mmHg 17%
    22:00 +21°C° 0 mm 6 mps 681 mmHg 17%
    23:00 +20°C° 0 mm 5 mps 680 mmHg 17%

    Day after tomorrow, 21 October, Saturday

    Time Temperature Precipitation Wind Pressure Humidity
    00:00 +20°C° 0 mm 4 mps 680 mmHg 18%
    01:00 +19°C° 0 mm 3 mps 680 mmHg 18%
    02:00 +18°C° 0 mm 3 mps 680 mmHg 19%
    03:00 +17°C° 0 mm 2 mps 680 mmHg 20%
    04:00 +16°C° 0 mm 2 mps 680 mmHg 22%
    05:00 +17°C° 0 mm 2 mps 680 mmHg 20%
    06:00 +18°C° 0 mm 2 mps 681 mmHg 19%
    07:00 +19°C° 0 mm 2 mps 682 mmHg 18%
    08:00 +21°C° 0 mm 3 mps 682 mmHg 15%
    09:00 +24°C° 0 mm 3 mps 682 mmHg 13%
    10:00 +26°C° 0 mm 4 mps 682 mmHg 10%
    11:00 +28°C° 0 mm 4 mps 682 mmHg 10%
    12:00 +29°C° 0 mm 4 mps 681 mmHg 9%
    13:00 +32°C° 0 mm 4 mps 681 mmHg 8%
    14:00 +31°C° 0 mm 3 mps 680 mmHg 8%
    15:00 +33°C° 0 mm 3 mps 680 mmHg 8%
    16:00 +32°C° 0 mm 2 mps 679 mmHg 7%
    17:00 +31°C° 0 mm 2 mps 679 mmHg 8%
    18:00 +30°C° 0 mm 2 mps 680 mmHg 8%
    19:00 +29°C° 0 mm 3 mps 680 mmHg 9%
    20:00 +28°C° 0 mm 3 mps 680 mmHg 9%
    21:00 +28°C° 0 mm 4 mps 679 mmHg 9%
    22:00 +27°C° 0 mm 4 mps 679 mmHg 10%
    23:00 +26°C° 0 mm 3 mps 679 mmHg 10%

    22 October, Sunday

    Time Temperature Precipitation Wind Pressure Humidity
    00:00 +25°C° 0 mm 3 mps 678 mmHg 11%
    01:00 +24°C° 0 mm 2 mps 678 mmHg 11%
    02:00 +23°C° 0 mm 2 mps 678 mmHg 12%
    03:00 +21°C° 0 mm 2 mps 678 mmHg 12%
    04:00 +21°C° 0 mm 1 mps 678 mmHg 13%
    05:00 +23°C° 0 mm 2 mps 679 mmHg 11%
    06:00 +25°C° 0 mm 3 mps 680 mmHg 10%
    07:00 +26°C° 0 mm 3 mps 680 mmHg 8%
    08:00 +29°C° 0 mm 4 mps 680 mmHg 7%
    09:00 +32°C° 0 mm 4 mps 680 mmHg 6%
    10:00 +34°C° 0 mm 4 mps 680 mmHg 5%
    11:00 +35°C° 0 mm 4 mps 680 mmHg 5%
    12:00 +36°C° 0 mm 3 mps 679 mmHg 5%
    13:00 +38°C° 0 mm 3 mps 678 mmHg 5%
    14:00 +38°C° 0 mm 3 mps 678 mmHg 5%
    15:00 +38°C° 0 mm 3 mps 677 mmHg 4%
    16:00 +39°C° 0 mm 3 mps 677 mmHg 4%
    17:00 +37°C° 0 mm 3 mps 677 mmHg 5%
    18:00 +35°C° 0 mm 3 mps 677 mmHg 6%
    19:00 +34°C° 0 mm 3 mps 677 mmHg 7%
    20:00 +32°C° 0 mm 4 mps 677 mmHg 11%
    21:00 +30°C° 0 mm 6 mps 678 mmHg 15%
    22:00 +28°C° 0 mm 7 mps 678 mmHg 19%
    23:00 +27°C° 0 mm 6 mps 678 mmHg 23%

    23 October, Monday

    Time Temperature Precipitation Wind Pressure Humidity
    00:00 +26°C° 0 mm 5 mps 678 mmHg 26%
    01:00 +25°C° 0 mm 3 mps 678 mmHg 29%
    02:00 +24°C° 0 mm 3 mps 678 mmHg 30%
    03:00 +22°C° 0 mm 3 mps 677 mmHg 32%
    04:00 +21°C° 0 mm 3 mps 677 mmHg 33%
    05:00 +22°C° 0 mm 3 mps 678 mmHg 31%
    06:00 +22°C° 0 mm 4 mps 679 mmHg 29%
    07:00 +23°C° 0 mm 4 mps 679 mmHg 26%
    08:00 +26°C° 0 mm 3 mps 679 mmHg 22%
    09:00 +28°C° 0 mm 3 mps 679 mmHg 18%
    10:00 +30°C° 0 mm 2 mps 680 mmHg 14%
    11:00 +32°C° 0 mm 2 mps 679 mmHg 12%
    12:00 +34°C° 0 mm 2 mps 679 mmHg 10%
    13:00 +35°C° 0 mm 2 mps 678 mmHg 8%
    14:00 +36°C° 0 mm 3 mps 678 mmHg 8%
    15:00 +36°C° 0 mm 3 mps 678 mmHg 7%
    16:00 +37°C° 0 mm 3 mps 677 mmHg 7%
    17:00 +35°C° 0 mm 4 mps 677 mmHg 8%
    18:00 +33°C° 0 mm 5 mps 678 mmHg 9%
    19:00 +32°C° 0 mm 6 mps 678 mmHg 10%
    20:00 +29°C° 0 mm 5 mps 678 mmHg 13%
    21:00 +28°C° 0 mm 4 mps 678 mmHg 16%
    22:00 +27°C° 0 mm 3 mps 678 mmHg 18%
    23:00 +26°C° 0 mm 3 mps 678 mmHg 20%

    24 October, Tuesday

    Time Temperature Precipitation Wind Pressure Humidity
    00:00 +25°C° 0 mm 3 mps 678 mmHg 22%
    01:00 +24°C° 0 mm 3 mps 677 mmHg 24%
    02:00 +24°C° 0 mm 3 mps 677 mmHg 25%
    03:00 +23°C° 0 mm 2 mps 677 mmHg 27%
    04:00 +21°C° 0 mm 2 mps 676 mmHg 29%
    05:00 +23°C° 0 mm 2 mps 677 mmHg 27%
    06:00 +23°C° 0 mm 2 mps 677 mmHg 26%
    07:00 +24°C° 0 mm 2 mps 678 mmHg 24%
    08:00 +26°C° 0 mm 2 mps 678 mmHg 22%
    09:00 +28°C° 0 mm 2 mps 678 mmHg 19%
    10:00 +30°C° 0 mm 2 mps 678 mmHg 16%
    11:00 +32°C° 0 mm 2 mps 677 mmHg 14%
    12:00 +35°C° 0 mm 3 mps 677 mmHg 11%
    13:00 +37°C° 0 mm 4 mps 676 mmHg 8%
    14:00 +37°C° 0 mm 4 mps 676 mmHg 7%
    15:00 +39°C° 0 mm 5 mps 676 mmHg 6%
    16:00 +39°C° 0 mm 6 mps 676 mmHg 5%
    17:00 +36°C° 0 mm 6 mps 676 mmHg 7%
    18:00 +34°C° 0 mm 7 mps 676 mmHg 9%
    19:00 +32°C° 0 mm 7 mps 677 mmHg 10%
    20:00 +29°C° 0 mm 7 mps 677 mmHg 13%
    21:00 +27°C° 0 mm 6 mps 677 mmHg 16%
    22:00 +26°C° 0 mm 5 mps 677 mmHg 19%
    23:00 +23°C° 0 mm 5 mps 677 mmHg 22%
    Show more